TimeMDT,TemperatureF,Dew PointF,Humidity,Sea Level PressureIn,VisibilityMPH,Wind Direction,Wind SpeedMPH,Gust SpeedMPH,PrecipitationIn,Events,Conditions,WindDirDegrees,DateUTC
12:53 AM,46.0,37.9,73,30.09,10.0,SE,9.2,-,N/A,,Clear,140,2013-05-10 06:53:00
2:53 AM,41.0,37.0,86,30.10,10.0,SSE,5.8,-,N/A,,Clear,160,2013-05-10 08:53:00
3:53 AM,41.0,36.0,82,30.10,10.0,SE,8.1,-,N/A,,Clear,140,2013-05-10 09:53:00
4:53 AM,37.9,35.1,89,30.10,10.0,SSE,5.8,-,N/A,,Clear,160,2013-05-10 10:53:00
7:53 AM,45.0,35.1,68,30.14,10.0,Calm,Calm,-,N/A,,Clear,0,2013-05-10 13:53:00
8:53 AM,50.0,36.0,59,30.14,10.0,Calm,Calm,-,N/A,,Clear,0,2013-05-10 14:53:00
9:53 AM,55.9,39.0,53,30.13,10.0,NE,3.5,-,N/A,,Clear,40,2013-05-10 15:53:00
11:53 AM,60.1,37.9,44,30.11,10.0,NW,6.9,-,N/A,,Clear,320,2013-05-10 17:53:00
12:53 PM,63.0,37.0,38,30.08,10.0,North,8.1,-,N/A,,Clear,360,2013-05-10 18:53:00
1:53 PM,66.0,33.1,29,30.06,10.0,NNW,15.0,18.4,N/A,,Clear,340,2013-05-10 19:53:00
2:53 PM,66.0,32.0,28,30.08,10.0,SSE,18.4,-,N/A,,Mostly Cloudy,150,2013-05-10 20:53:00
3:53 PM,60.1,37.0,42,30.09,10.0,NE,13.8,18.4,0.01,Rain,Light Rain,50,2013-05-10 21:53:00
4:04 PM,60.8,39.2,45,30.20,10.0,SW,3.5,-,0.00,Rain,Light Rain,220,2013-05-10 22:04:00
4:53 PM,62.1,37.0,39,30.11,10.0,ESE,16.1,26.5,0.00,,Scattered Clouds,120,2013-05-10 22:53:00
5:53 PM,63.0,34.0,34,30.10,10.0,SSE,11.5,-,N/A,,Scattered Clouds,160,2013-05-10 23:53:00
6:53 PM,64.0,33.1,31,30.11,10.0,Variable,5.8,-,N/A,,Mostly Cloudy,0,2013-05-11 00:53:00
7:53 PM,59.0,36.0,42,30.12,10.0,East,6.9,-,N/A,,Clear,100,2013-05-11 01:53:00
8:53 PM,55.0,37.0,51,30.14,10.0,South,5.8,-,N/A,,Scattered Clouds,170,2013-05-11 02:53:00
9:53 PM,52.0,37.9,59,30.17,10.0,SSE,9.2,-,N/A,,Clear,160,2013-05-11 03:53:00
10:53 PM,48.9,37.0,64,30.19,10.0,SSE,10.4,-,N/A,,Clear,160,2013-05-11 04:53:00
11:53 PM,48.0,36.0,63,30.20,10.0,SSE,11.5,-,N/A,,Clear,150,2013-05-11 05:53:00